Location: Lafig�re
(44.4503°N, 4.0357°E)
Time: 06:10:53
(UTC+00:00)

Cosmos 1125 Rocket - Pass Details

Date: 20 January 2021
Orbit: 757 x 780 km, 74.0° (Epoch: 06 March)

Event Time Altitude Azimuth Distance (km) Brightness Sun altitude
Rises 05:53:16 0° 345° (NNW) 3,262 6.5 -14.2°
Reaches altitude 10° 05:55:49 10° 353° (N) 2,334 5.8 -13.7°
Maximum altitude 06:00:46 39° 62° (ENE) 1,158 4.9 -12.9°
Drops below altitude 10° 06:05:43 10° 131° (SE) 2,329 7.1 -12.0°
Sets 06:08:15 0° 139° (SE) 3,254 7.8 -11.6°
